Home > Weather > Kwajalein > Past weeks

Flag for Marshall Islands Past Weather in Kwajalein, Marshall Islands — Yesterday and Last 2 Weeks

Now
80 °F

Clear.


Feels Like: 84 °F
Forecast: 80 / 88 °F
Wind: 6 mph from East

Location: Kwajalein / Bucholz

Current Time: Jun 29, 2016 at 6:52:33 AM

Latest Report: Jun 29, 2016 at 6:20 AM


Visibility: 10 mi

Pressure: 29.84 "Hg

Humidity: 82%

Dew Point: 74 °F

Location of KwajaleinLocation

Past Weather in Kwajalein — Graph

°F

Kwajalein Temperature Yesterday

Maximum temperature yesterday: 86 °F (at 11:20 AM)
Minimum temperature yesterday: 79 °F (at 5:00 AM)
Average temperature yesterday: 83 °F

High & Low Weather Summary for the Past Weeks

 TemperatureHumidityPressure
High89 °F (Jun 24, 3:20 PM)89% (Jun 18, 5:20 AM)29.89 "Hg (Jun 18, 5:20 AM)
Low78 °F (Jun 18, 5:20 AM)62% (Jun 15, 12:20 PM)29.75 "Hg (Jun 19, 5:00 PM)
Average83 °F76%29.82 "Hg
* Reported Jun 14 5:00 AM — Jun 29 5:40 AM, Kwajalein, Weather by CustomWeather, © 2016

Note: Actual official high and low records may vary slightly from our data, if they occured in-between our weather recording intervals... More about our weather records

Advertising

Kwajalein Weather History for the Previous 24 Hours

Scroll right to see more
 ConditionsComfort  
Time TempWeatherWind HumidityBarometerVisibility
5:40 AM
Wed, Jun 29
80 °FClear.6 mph82%29.83 "Hg10 mi
5:20 AM80 °FClear.7 mph82%29.83 "Hg10 mi
5:00 AM80 °FClear.6 mph81%29.83 "Hg10 mi
4:40 AM80 °FClear.6 mph81%29.83 "Hg10 mi
4:20 AM80 °FClear.6 mph80%29.83 "Hg10 mi
4:00 AM80 °FClear.6 mph81%29.83 "Hg10 mi
3:20 AM81 °FClear.6 mph80%29.83 "Hg10 mi
3:00 AM81 °FClear.7 mph80%29.83 "Hg10 mi
2:20 AM81 °FClear.8 mph80%29.83 "Hg10 mi
2:00 AM81 °FClear.8 mph79%29.84 "Hg10 mi
1:20 AM81 °FPassing clouds.10 mph80%29.85 "Hg10 mi
1:00 AM81 °FPassing clouds.13 mph80%29.86 "Hg10 mi
12:40 AM81 °FPassing clouds.12 mph81%29.86 "Hg10 mi
12:20 AM82 °FPassing clouds.9 mph81%29.87 "Hg10 mi
12:00 AM82 °FClear.12 mph81%29.88 "Hg10 mi
11:20 PM
Tue, Jun 28
82 °FClear.13 mph79%29.88 "Hg10 mi
11:00 PM82 °FClear.13 mph78%29.88 "Hg10 mi
10:40 PM82 °FPartly cloudy.12 mph78%29.88 "Hg10 mi
10:20 PM82 °FPassing clouds.10 mph77%29.88 "Hg10 mi
10:00 PM82 °FPassing clouds.8 mph76%29.88 "Hg10 mi
9:20 PM83 °FPassing clouds.9 mph74%29.86 "Hg10 mi
9:00 PM83 °FPassing clouds.9 mph74%29.86 "Hg10 mi
8:20 PM83 °FPassing clouds.9 mph73%29.85 "Hg10 mi
7:40 PM83 °FClear.10 mph72%29.83 "Hg10 mi
7:00 PM84 °FScattered clouds.9 mph70%29.82 "Hg10 mi
5:20 PM86 °FScattered clouds.12 mph67%29.80 "Hg10 mi
5:00 PM86 °FSunny.12 mph68%29.80 "Hg10 mi
4:20 PM86 °FScattered clouds.12 mph67%29.79 "Hg10 mi
4:00 PM86 °FSunny.10 mph67%29.80 "Hg10 mi
3:20 PM85 °FSunny.12 mph69%29.80 "Hg10 mi
3:00 PM85 °FScattered clouds.14 mph68%29.80 "Hg10 mi
2:20 PM86 °FMore clouds than sun.10 mph69%29.80 "Hg10 mi
2:00 PM86 °FCloudy.10 mph69%29.81 "Hg4 mi
1:20 PM86 °FCloudy.16 mph70%29.82 "Hg10 mi
1:00 PM85 °FCloudy.17 mph73%29.83 "Hg10 mi
12:40 PM85 °FPartly sunny.14 mph72%29.83 "Hg10 mi
12:20 PM85 °FBroken clouds.14 mph72%29.84 "Hg10 mi
12:00 PM85 °FBroken clouds.12 mph72%29.85 "Hg10 mi
11:20 AM86 °FBroken clouds.12 mph68%29.85 "Hg10 mi
11:00 AM85 °FScattered clouds.14 mph69%29.86 "Hg10 mi
10:40 AM85 °FPartly sunny.15 mph70%29.86 "Hg10 mi
10:20 AM84 °FScattered clouds.14 mph71%29.86 "Hg10 mi
10:00 AM83 °FScattered clouds.13 mph73%29.86 "Hg10 mi
9:20 AM83 °FSunny.9 mph74%29.85 "Hg10 mi
9:00 AM82 °FSunny.9 mph75%29.85 "Hg10 mi
8:20 AM82 °FSunny.7 mph77%29.84 "Hg10 mi
8:00 AM81 °FSunny.8 mph79%29.83 "Hg10 mi
7:40 AM80 °FSunny.7 mph81%29.83 "Hg10 mi
7:20 AM80 °FSunny.7 mph82%29.83 "Hg10 mi
7:00 AM80 °FSunny.7 mph84%29.83 "Hg10 mi
6:20 AM79 °FPassing clouds.7 mph85%29.82 "Hg10 mi
6:00 AM79 °FPassing clouds.8 mph85%29.82 "Hg10 mi
Weather by CustomWeather, © 2016

See weather overviewHow to use our weather pages